Location: Observatoire de l'Aigle
(47.0607°N, 71.3152°W)
Time: 21:57:24
(UTC-05:00)

Daily predictions for brighter satellites

Satellite Brightness Start Highest point End
(mag) Time Altitude Azimuth Time Altitude Azimuth Time Altitude Azimuth
SMAP 3.0 16:59:41 10° SSE 17:04:20 78° ENE 17:09:01 10° N
SJ-7 4.3 17:00:49 10° SSE 17:04:49 70° ENE 17:08:49 10° N
Cosmos 371 Rocket 3.3 17:00:19 10° SSW 17:05:06 76° ESE 17:09:56 10° NNE
Cosmos 841 Rocket 3.8 17:01:37 10° SSW 17:06:53 73° WNW 17:12:11 10° NNE
Abrixas 3.4 17:05:41 10° SW 17:08:25 36° SSE 17:11:09 10° E
BREEZE M DEB (TANK) 1.7 17:05:06 10° WNW 17:08:59 79° SSW 17:11:09 10° ESE
USA 116 3.2 17:06:33 10° NNE 17:09:39 55° E 17:12:42 10° S
CZ-4 R/B 1.7 17:09:34 10° S 17:13:26 69° WSW 17:17:22 10° NNW
Cosmos 1707 Rocket 4.5 17:11:04 10° NNE 17:14:46 26° ENE 17:18:26 10° SE
Cosmos 2237 Rocket 2.3 17:10:01 10° SSW 17:15:34 64° ESE 17:21:10 10° NNE
Cosmos 2369 Rocket 3.8 17:12:25 10° N 17:15:38 15° NE 17:18:50 10° ENE
SJ-6B 4.4 17:13:00 10° ESE 17:15:47 18° ENE 17:18:36 10° NNE
COSMO-SKYMED 1 3.4 17:13:45 10° NNE 17:17:36 30° E 17:21:25 10° SSE
Cosmos 2151 3.1 17:14:53 10° S 17:18:59 55° E 17:23:06 10° NNE
YAOGAN 1 2.6 17:14:47 10° SSE 17:19:07 87° WSW 17:23:29 10° NNW
Cosmos 1300 2.6 17:15:17 10° N 17:19:08 82° E 17:22:58 10° S
Meteor 1-27 4.3 17:13:55 10° N 17:19:43 63° ENE 17:25:30 10° SSE
Thor Agena Rocket 3.6 17:14:43 10° NNE 17:19:57 64° ESE 17:25:03 10° S
BREEZE-M DEB (TANK) 4.0 17:18:47 10° S 17:20:19 15° SE 17:21:52 10° E
Meteor 2-10 4.0 17:18:49 10° N 17:23:54 65° ENE 17:29:07 10° SSE
SL-16 R/B 2.9 17:19:08 10° SSE 17:24:09 34° ESE 17:29:10 10° NE
MONITOR-E 4.2 17:21:40 10° SSE 17:24:47 58° ENE 17:27:55 10° N
COSMOS 2428 3.8 17:20:37 10° SW 17:26:03 43° NW 17:31:30 10° NNE
SPOT 3 Rocket 3.8 17:21:39 10° S 17:26:48 75° WSW 17:32:00 10° NNW
Cosmos 44 Rocket 3.8 17:22:52 10° SW 17:27:57 64° NW 17:32:56 10° NNE
CZ-3A R/B 2.8 17:24:00 10° WNW 17:29:42 68° NNE 17:34:42 10° ESE
CZ-4C R/B 4.1 17:29:01 10° NW 17:33:42 20° NNE 17:38:16 12° NE
Cosmos 2297 3.7 17:28:12 10° NNW 17:33:56 77° ENE 17:39:40 10° SSE
SL-14 R/B 3.3 17:33:13 10° S 17:37:10 88° ESE 17:41:12 10° N
FREGAT/IRIS 4.0 17:34:56 10° ESE 17:37:12 19° ENE 17:39:29 10° NNE
Cosmos 1484 Rocket 2.8 17:35:09 10° SSE 17:39:06 85° ENE 17:43:09 10° NNW
Resurs 01 Rocket 3.0 17:36:05 10° ESE 17:39:10 19° ENE 17:42:15 10° NNE
Cosmos 304 Rocket 4.0 17:34:33 10° S 17:39:11 50° ESE 17:43:51 10° NNE
Cosmos 1340 Rocket 2.8 17:37:10 10° S 17:41:02 57° E 17:44:54 10° NNE
Cosmos 2279 Rocket 4.0 17:36:01 10° N 17:42:16 83° E 17:48:30 10° S
Meteor 1-28 Rocket 3.7 17:40:30 10° NNE 17:43:58 36° E 17:47:25 10° SSE
Lacrosse 4 Rocket 1.8 17:41:00 10° NNW 17:44:50 38° NE 17:48:38 10° ESE
Cosmos 1151 Rocket 4.0 17:41:03 10° NNW 17:45:13 50° W 17:49:21 10° S
FENGYUN 3A 4.4 17:47:07 10° ESE 17:51:42 30° ENE 17:56:19 10° N
METEOR-M 4.3 17:46:50 10° SE 17:51:59 51° ENE 17:57:11 10° N
Cosmos 1869 4.1 17:49:09 10° N 17:52:46 30° ENE 17:56:23 10° SE
IDEFIX/ARIANE 42P 4.4 17:49:05 10° SSW 17:53:49 35° W 17:58:38 10° NNW
ATLAS 3B R/B 4.3 17:49:29 10° NW 17:54:38 20° N 17:58:38 13° NE
Cosmos 540 Rocket 3.9 17:51:05 10° SW 17:56:12 62° WNW 18:01:21 10° NNE
Aureole 2 Rocket 3.0 17:52:25 10° SSW 17:56:16 71° WNW 18:00:26 10° NNE
Blok-2BL 4.1 17:55:15 10° NNW 17:58:18 31° NE 17:58:53 29° ENE
USA 215 3.2 17:53:46 10° ESE 18:00:18 73° NNE 18:06:51 10° NW
NOAA 12 4.0 17:55:35 10° SSE 18:00:46 65° ENE 18:06:00 10° N
Cosmos 773 Rocket 4.5 17:56:56 10° SSE 18:01:39 37° ESE 18:04:53 19° NE
Cosmos 2058 3.3 17:59:04 10° SSW 18:03:08 65° W 18:07:14 10° N
ATLAS 5 CENTAUR R/B 3.5 17:59:21 10° NNW 18:03:49 23° NNE 18:05:48 20° NE
Cosmos 1980 4.4 17:58:56 10° SW 18:04:29 54° WNW 18:10:04 10° NNE
Nadezhda 4 Rocket 4.1 17:58:54 10° SSE 18:04:59 56° E 18:11:10 10° NNE
Lacrosse 5 3.2 18:01:31 10° NW 18:05:49 27° N 18:08:06 19° NE
SKYMED 2 3.5 18:01:29 10° NNE 18:05:52 88° WNW 18:10:12 10° SSW
Cosmos 2242 Rocket 3.8 18:01:48 10° N 18:06:04 46° ENE 18:10:21 10° SSE
Cosmos 1805 Rocket 3.5 18:02:18 10° S 18:06:46 82° E 18:11:15 10° N
Cosmos 1461 2.7 18:05:40 10° SSW 18:09:49 82° SE 18:12:04 26° NE
Cosmos 1626 2.0 18:12:07 10° S 18:15:51 82° E 18:19:24 11° N
Aureole 1 Rocket 4.1 18:12:44 10° S 18:18:15 54° ESE 18:25:24 10° NNE
Cosmos 44 4.5 18:14:51 10° WSW 18:19:45 41° NW 18:23:41 14° NNE
Sich 1 2.9 18:15:23 10° S 18:19:48 74° E 18:24:15 10° NNE
Lacrosse 5 rocket 4.3 18:18:16 10° W 18:20:14 14° SW 18:22:13 10° SSW
Cosmos 1943 Rocket 3.5 18:17:29 10° N 18:21:11 20° NE 18:21:11 20° NE
Cosmos 2219 Rocket 3.8 18:16:46 10° WSW 18:21:42 30° NW 18:26:38 10° NNE
Cosmos 1356 Rocket 3.2 18:19:11 10° S 18:23:10 89° W 18:26:49 12° N
ALOS 2.3 18:20:58 10° SSE 18:25:29 52° ENE 18:30:02 10° N
Cosmos 1092 Rocket 4.0 18:21:08 10° S 18:27:20 60° E 18:33:34 10° NNE
Cosmos 2333 Rocket 3.7 18:23:24 10° WSW 18:28:28 33° NW 18:33:35 10° NNE
Cosmos 1603 4.0 18:23:40 10° S 18:28:52 41° ESE 18:30:06 36° ENE
Cosmos 1633 Rocket 2.9 18:25:44 10° S 18:30:09 83° E 18:34:22 11° N
FengYun 1-2 T 4.1 18:26:06 10° SSE 18:31:34 64° ENE 18:37:02 10° N
Cosmos 972 Rocket 4.4 18:26:56 10° N 18:31:53 42° ENE 18:32:57 38° E
Cosmos 1455 2.8 18:31:06 10° NNW 18:34:50 55° W 18:38:34 10° S
CENTAUR R/B 4.1 18:29:31 10° W 18:35:10 29° NNW 18:40:21 14° NNE
Cosmos 292 Rocket 4.1 18:31:20 10° S 18:35:33 43° ESE 18:35:33 43° ESE
Abrixas 3.6 18:40:51 10° W 18:42:57 41° W 18:42:57 41° W
USA 229 DEB 3.7 18:37:26 10° SSW 18:44:12 65° ESE 18:47:09 36° NE
USA 229 3.7 18:37:32 10° SSW 18:44:18 64° ESE 18:47:12 36° NE
Cosmos 1242 Rocket 3.5 18:42:40 10° NNW 18:44:49 35° NNW 18:44:49 35° NNW
Cosmos 1184 Rocket 3.6 18:44:58 10° SSW 18:48:13 51° WNW 18:48:43 46° NW
SJ-6B 3.8 18:46:06 10° S 18:50:05 50° W 18:54:09 10° NNW
Cosmos 1862 Rocket 3.4 18:45:44 10° N 18:49:59 74° ENE 18:49:59 74° ENE
Cosmos 2195 Rocket 4.4 18:44:35 10° S 18:50:34 59° E 18:56:36 10° NNE
Spot 2 Rocket 3.3 18:45:34 10° SSE 18:50:36 82° ENE 18:55:41 10° NNW
COSMO-SKYMED 1 4.4 18:49:56 10° N 18:53:44 30° WNW 18:57:31 10° SW
Iridium 4 Rocket 3.0 18:50:27 10° S 18:54:51 79° W 18:57:11 26° N
SL-19 R/B 4.5 18:52:17 10° S 18:58:04 73° WSW 19:03:40 10° NNW
Cosmos 2237 Rocket 4.1 18:55:26 10° WSW 19:00:06 26° NW 19:04:49 10° N
Cosmos 2369 Rocket 2.1 18:55:15 10° NNW 19:00:54 63° ENE 19:01:00 62° ENE
Cosmos 2084 Rocket 4.3 18:57:54 10° NW 19:00:16 36° NNW 19:00:16 36° NNW
H-2A ROCKET BODY 4.5 18:50:38 10° WSW 19:05:02 24° SSW 19:09:18 14° SSE
SL-16 R/B 3.2 19:02:46 10° SW 19:08:09 43° NW 19:11:54 19° N
Cosmos 1417 Rocket 4.3 19:06:09 10° N 19:12:21 73° E 19:13:16 62° SE
Resurs 01 Rocket 2.2 19:12:15 19° S 19:15:15 55° W 19:19:38 10° NNW
Resurs 1-3 4.1 19:16:00 56° NW 19:16:00 56° NW 19:19:41 10° NNW
Cosmos 923 Rocket 4.0 19:11:18 10° SSW 19:16:30 76° WNW 19:17:00 69° NNW
Cosmos 1933 Rocket 4.4 19:13:24 10° SSW 19:16:31 44° SSW 19:16:31 44° SSW
Cosmos 1680 Rocket 3.7 19:17:41 10° SSW 19:22:05 64° SSW 19:22:05 64° SSW
Lacrosse 4 Rocket 3.6 19:20:05 10° WNW 19:23:20 23° WSW 19:25:17 17° SSW
CZ-4C R/B 3.4 19:17:43 10° NNW 19:23:28 40° NNE 19:23:28 40° NNE
Cosmos 1655 Rocket 3.9 19:17:55 10° S 19:31:25 - N 19:24:06 78° ESE
Cosmos 1627 Rocket 4.5 19:20:30 10° SSW 19:26:40 79° W 19:32:50 10° N
Cosmos 1867 4.1 19:22:23 10° NW 19:26:33 52° NNW 19:26:33 52° NNW
USA 215 4.2 19:40:52 29° S 19:43:35 41° SW 19:49:44 10° WNW
S3M 4.4 19:40:11 10° N 19:45:05 56° NNW 19:45:05 56° NNW
ATLAS 3B R/B 3.8 19:41:14 10° NNW 19:45:53 31° N 19:45:53 31° N
ATLAS 5 CENTAUR R/B 3.2 19:43:40 10° NW 19:47:22 41° NNW 19:47:22 41° NNW
Lacrosse 5 3.6 19:44:55 10° NW 19:47:19 26° NNW 19:47:19 26° NNW
Cosmos 2026 Rocket 4.5 19:47:51 10° SSW 19:53:54 56° WNW 19:56:00 38° NNW
Cosmos 1943 Rocket 3.9 20:00:29 10° NNW 20:02:43 25° NNW 20:02:43 25° NNW
Cosmos 2369 Rocket 4.5 20:40:08 10° NW 20:42:51 20° WNW 20:42:51 20° WNW
